Torna al catalogo

BREEZE-M R/B

AttivoHEO
NORAD 37603·ROCKET BODY·🇷🇺 Russia

Lanciato May 20, 2011 da Baikonur Cosmodrome

Loading…

Prossimi Passaggi (prossime 24 ore)

TLE

AggiornatoSource: Space-Track

Epoca: Sep 14, 2026, 07:28 UTC

1 37603U 11021B   26257.31172233 -.00000160  00000-0  00000-0 0  9996
2 37603  14.8054 299.2392 4865078  54.6597 341.7469  1.92764245107780

Traccia BREEZE-M R/B in tempo reale con AllMySat

Download on the App Store